FW1828 Weather Reports


Display with metric or nautical units.
time (UTC)temp
F
wind
direction
speed
MPH
gust
MPH
rain 1hr
in
rain 24hr
in
rain mn
in
humidity
%
barometer
mb
20260503031513 42 223 1.0 2.0 0.00 0.01 0.01 73 1016.9
20260503030010 44 46 0.0 1.0 0.00 0.01 0.01 71 1016.7
20260503024508 45 89 0.0 1.0 0.00 0.01 0.01 68 1016.8
20260503023004 46 135 0.0 2.0 0.00 0.01 0.01 64 1016.8
20260503021608 48 269 0.0 2.0 0.00 0.01 0.01 61 1016.8
20260503020106 49 344 1.0 5.0 0.00 0.01 0.01 56 1016.7
20260503014553 49 324 0.0 2.0 0.00 0.01 0.01 59 1016.4
20260503013049 51 336 1.0 3.0 0.00 0.01 0.01 52 1016.2
20260503011604 52 343 2.0 5.0 0.00 0.01 0.01 50 1016.0
20260503010058 53 269 2.0 7.0 0.00 0.01 0.01 47 1015.8
20260503004555 54 13 3.0 7.0 0.00 0.01 0.01 45 1015.3
20260503003101 55 321 4.0 12.0 0.00 0.01 0.01 44 1015.3
20260503001600 55 331 5.0 11.0 0.00 0.01 0.01 42 1014.9
20260503000052 56 46 5.0 13.0 0.00 0.01 0.01 41 1014.6
20260502234555 57 309 4.0 7.0 0.00 0.01 0.01 41 1014.4
20260502233051 58 351 4.0 16.0 0.00 0.01 0.01 39 1014.0
20260502231547 60 293 5.0 21.0 0.00 0.01 0.01 38 1013.8
20260502230047 59 329 7.0 13.0 0.00 0.01 0.01 39 1013.7
20260502224546 60 30 6.0 11.0 0.00 0.01 0.01 39 1013.6
20260502223046 61 325 4.0 13.0 0.00 0.01 0.01 39 1013.4
20260502221547 62 37 5.0 14.0 0.00 0.01 0.01 36 1013.1
20260502220116 63 42 6.0 17.0 0.00 0.01 0.01 36 1012.8
20260502214546 62 72 5.0 15.0 0.00 0.01 0.01 36 1012.5
20260502213045 64 318 11.0 21.0 0.00 0.01 0.01 34 1012.3
20260502211544 63 323 7.0 13.0 0.00 0.01 0.01 37 1012.1
20260502210043 63 298 4.0 9.0 0.00 0.01 0.01 37 1011.9
20260502204542 63 72 2.0 9.0 0.00 0.01 0.01 35 1011.7
20260502203057 65 233 4.0 11.0 0.00 0.01 0.01 37 1011.7
20260502201541 63 203 2.0 11.0 0.00 0.01 0.01 37 1011.9
20260502200035 63 236 5.0 10.0 0.00 0.01 0.01 40 1011.9
20260502194541 63 124 2.0 12.0 0.00 0.01 0.01 44 1012.1
20260502193033 63 135 4.0 8.0 0.00 0.01 0.01 38 1012.4
20260502191539 62 178 2.0 8.0 0.00 0.01 0.01 40 1012.6
20260502190032 62 152 3.0 7.0 0.00 0.01 0.01 40 1013.0
20260502184537 62 198 4.0 8.0 0.00 0.01 0.01 41 1012.9
20260502183029 62 63 1.0 7.0 0.00 0.01 0.01 45 1012.9
20260502181532 62 46 1.0 4.0 0.00 0.01 0.01 44 1013.2
20260502163036 55 108 1.0 4.0 0.00 0.01 0.01 52 1015.3
20260502161521 53 63 0.0 5.0 0.00 0.01 0.01 50 1015.5
20260502151508 52 28 0.0 2.0 0.01 0.01 0.01 54 1015.7
20260502123006 52 70 2.0 8.0 0.00 0.00 0.00 53 1015.1
20260502121600 52 20 0.0 4.0 0.00 0.00 0.00 54 1014.8
20260502114554 52 89 0.0 7.0 0.00 0.00 0.00 59 1014.8
20260502113053 52 20 0.0 3.0 0.00 0.00 0.00 61 1014.7
20260502111549 52 63 0.0 2.0 0.00 0.00 0.00 62 1014.7
20260502110045 52 35 0.0 2.0 0.00 0.00 0.00 66 1014.5
20260502104542 52 28 0.0 4.0 0.00 0.00 0.00 66 1014.5
20260502103043 52 76 0.0 6.0 0.00 0.00 0.00 66 1014.3
20260502101543 52 46 1.0 3.0 0.00 0.00 0.00 66 1014.2
20260502071534 54 89 0.0 2.0 0.00 0.00 0.00 72 1013.5
20260502070045 53 1 0.0 2.0 0.00 0.00 0.00 74 1013.4
20260502064539 54 314 0.0 2.0 0.00 0.00 0.00 71 1013.6
20260502063030 54 178 0.0 3.0 0.00 0.00 0.00 71 1013.8
20260502061526 55 46 0.0 2.0 0.00 0.00 0.00 70 1013.9
20260502060027 55 89 0.0 2.0 0.00 0.00 0.00 70 1014.2
20260502054526 55 314 0.0 2.0 0.00 0.00 0.00 72 1014.2
20260502053023 55 342 0.0 3.0 0.00 0.00 0.00 72 1014.3
20260502051530 54 41 1.0 3.0 0.00 0.00 0.00 78 1014.2
20260502050033 54 314 0.0 6.0 0.00 0.00 0.00 79 1014.2
20260502044526 53 46 1.0 3.0 0.00 0.00 0.00 84 1014.1
20260502043024 52 89 0.0 1.0 0.00 0.00 0.00 85 1013.9
20260502041526 53 89 1.0 2.0 0.00 0.00 0.00 83 1013.7
20260502040024 54 89 0.0 1.0 0.00 0.00 0.00 79 1013.7
20260502034535 55 279 1.0 3.0 0.00 0.00 0.00 78 1013.6
20260502033023 55 250 1.0 4.0 0.00 0.00 0.00 77 1013.9